Wind_Speed
19 20 20 20 20 20 19 18 16 15 16 16 16 15 16 16 17 18 20 20 20 22 23 24 23 23 23 23 23 23 24 25 24 24 24 23 23 22 22 22 23 23
20 21 21 21 21 20 19 18 17 16 16 15 14 15 15 17 19 19 20 22 22 23 25 26 26 26 26 26 26 26 26 26 26 25 25 24 23 23 23 24 24 24
21 22 21 20 20 20 18 17 16 16 15 14 14 14 16 18 19 19 20 22 23 24 25 25 26 26 27 28 29 30 30 29 28 28 27 26 25 24 24 24 25 25
21 20 20 19 18 17 16 15 15 14 14 14 15 15 17 19 19 20 21 22 24 25 25 24 24 25 26 28 29 30 31 32 32 31 29 29 27 25 25 26 26 27
18 18 17 16 14 14 13 13 13 13 13 14 15 15 17 18 19 20 21 22 24 24 24 24 24 25 25 27 28 29 30 31 33 32 31 31 30 28 27 28 29 30
15 15 14 13 13 12 12 11 11 12 12 12 13 14 15 17 18 19 20 23 24 24 24 24 25 25 25 27 28 29 30 30 30 31 31 32 32 31 30 30 31 32
14 14 14 13 12 11 11 11 12 14 14 13 12 12 14 16 18 18 19 23 24 24 25 25 26 26 27 28 29 29 30 29 28 29 30 31 32 32 31 30 31 32
13 13 13 12 11 11 11 12 13 14 14 13 12 13 15 17 19 20 21 23 25 25 25 25 27 29 29 30 31 31 32 32 31 30 30 29 30 31 30 30 31 30
12 13 12 12 11 12 13 14 14 13 13 13 12 13 15 17 19 21 22 23 25 26 27 26 27 30 31 31 32 33 34 35 34 33 32 29 28 30 32 32 32 30
11 12 12 12 12 14 15 15 14 13 13 14 14 14 16 19 20 22 24 25 26 27 29 30 30 32 34 33 33 34 34 35 35 35 33 30 28 30 32 32 32 32
11 11 12 12 13 14 15 14 13 14 15 16 17 17 18 20 22 24 26 27 28 28 30 32 33 34 36 37 37 36 35 35 36 36 35 32 30 31 32 32 33 33
12 12 12 13 13 13 13 13 13 14 15 17 19 20 20 21 24 26 27 29 30 31 32 34 35 35 36 39 40 39 38 37 36 36 34 33 32 32 33 34 34 35
13 13 12 12 12 11 12 12 13 14 15 17 19 21 22 23 25 27 29 31 33 34 35 36 36 36 37 39 41 41 40 39 38 36 35 34 33 33 34 35 35 35
15 14 13 12 11 11 12 12 13 14 14 15 18 21 24 25 26 28 31 33 35 37 38 38 38 38 38 39 41 42 40 39 39 37 37 37 35 33 35 36 37 37
16 14 13 13 11 11 11 11 12 13 14 15 18 21 24 27 27 29 31 34 36 38 39 40 40 39 39 40 42 43 42 40 39 38 38 38 37 35 36 37 38 40
17 15 14 13 11 10 10 12 14 16 18 20 22 24 26 28 30 31 32 35 37 39 41 42 41 39 39 41 42 43 43 42 40 38 38 39 39 38 38 38 40 42
17 16 15 13 12 12 13 16 19 22 24 26 27 28 30 32 33 34 34 36 39 42 44 44 42 41 40 42 43 43 44 42 40 39 40 41 41 40 39 40 41 42
17 17 15 15 16 17 18 20 22 25 28 29 30 31 33 35 37 37 38 38 40 43 45 45 44 42 42 45 45 45 45 42 40 41 42 42 42 41 40 40 42 43
18 18 17 17 19 20 21 22 24 27 29 31 33 34 35 37 37 38 40 41 41 43 45 46 44 43 47 49 47 47 46 43 41 43 43 42 42 42 41 40 42 45
19 19 19 20 21 22 23 25 26 28 31 33 35 36 38 38 38 39 41 43 44 45 46 47 46 46 51 52 50 49 46 41 41 43 43 42 42 43 42 42 43 45
20 21 22 22 23 24 25 26 28 30 32 34 36 38 41 41 42 44 45 46 47 47 47 48 48 49 53 54 52 50 43 38 39 42 42 42 42 43 43 44 45 46
22 23 24 24 25 26 27 28 30 31 33 36 38 40 42 43 44 47 48 49 50 50 50 51 49 50 53 53 49 44 39 36 38 40 41 42 42 43 43 44 45 47
25 26 27 28 29 29 30 31 32 33 35 37 39 41 44 46 47 48 50 52 53 52 53 52 50 50 53 50 44 39 37 37 39 41 42 43 43 43 43 42 44 48
29 30 31 33 33 33 33 34 34 35 36 38 40 43 46 48 49 50 51 52 52 52 52 52 51 52 51 46 39 36 37 38 40 41 43 43 43 43 42 42 44 49
32 34 36 38 38 39 39 38 36 37 38 39 42 45 48 49 49 50 52 51 51 52 52 51 51 50 47 43 39 38 38 38 39 41 42 42 42 42 43 43 43 45
37 39 41 42 43 44 44 41 39 39 40 41 43 46 48 49 49 50 51 51 51 52 50 48 47 45 43 42 42 41 40 40 41 42 41 41 42 43 43 43 43 44
Wind_Direction
266 271 276 282 288 290 289 290 291 292 295 300 304 305 307 311 314 315 316 318 320 320 319 318 316 314 312 309 306 303 301 301 301 302 301 301 299 296 292 291 290 290
268 272 278 284 287 288 289 291 293 294 297 299 300 302 308 315 318 320 321 321 320 320 318 317 315 313 310 308 304 301 299 297 297 298 299 300 300 297 292 289 289 289
269 274 279 284 286 289 292 293 292 293 295 296 297 300 309 317 321 322 321 319 317 316 314 314 314 314 312 307 303 300 297 296 294 292 292 293 294 295 292 288 287 287
270 275 280 285 290 293 293 290 289 293 297 297 295 297 306 316 320 318 319 322 322 319 314 310 311 315 314 310 306 302 298 295 292 290 289 290 290 289 289 288 286 285
274 278 282 288 293 292 290 289 293 300 302 299 297 300 311 322 324 322 325 330 331 328 321 314 312 313 313 313 312 311 307 300 296 292 289 291 291 287 285 286 284 282
276 279 283 287 289 288 289 293 298 302 304 305 306 310 320 329 329 328 330 331 331 331 327 321 316 314 314 316 316 317 316 310 304 299 295 296 297 291 286 286 284 282
276 278 283 285 286 288 290 294 297 300 304 309 313 319 325 329 327 327 330 330 330 330 327 323 319 318 318 319 318 319 319 315 310 305 302 303 304 298 290 287 286 284
277 280 283 284 286 289 290 295 299 300 303 307 313 320 325 328 327 327 330 330 327 325 324 321 319 318 318 317 318 319 318 315 312 308 305 304 306 303 297 293 290 287
281 282 283 284 287 291 294 299 302 298 300 306 312 319 324 327 329 329 330 327 323 321 320 320 317 314 312 312 313 314 314 313 312 311 309 305 304 303 302 299 295 289
284 282 282 285 289 292 297 301 299 295 301 308 313 319 323 326 327 328 327 325 323 321 319 318 315 312 310 310 310 311 311 311 309 309 310 306 302 302 302 301 297 291
281 281 282 286 290 292 296 297 292 293 303 309 312 317 322 324 325 326 326 325 325 324 321 317 315 313 312 312 312 312 311 309 306 306 308 307 303 300 300 300 296 292
278 280 281 285 289 291 293 292 289 294 304 309 311 315 318 321 323 324 325 325 323 324 324 320 317 316 315 313 313 313 311 308 305 302 304 307 305 299 296 295 294 292
275 277 279 283 288 289 289 289 289 294 302 308 310 314 316 318 321 321 323 323 322 323 324 321 318 317 315 314 313 312 310 308 306 303 302 304 306 301 296 295 295 295
270 272 275 279 281 283 285 288 292 296 302 309 313 315 316 318 319 320 321 321 321 320 320 319 319 316 313 313 313 310 308 306 304 302 300 300 302 301 296 295 295 295
263 265 267 271 273 275 281 289 297 303 307 312 315 314 314 316 318 318 319 318 317 317 317 316 318 317 314 313 312 309 307 305 301 298 297 297 298 299 297 294 291 290
257 258 258 261 262 266 278 291 299 305 308 311 312 312 312 314 315 316 316 314 313 314 314 313 314 316 315 313 311 309 307 304 302 300 298 297 298 298 298 295 290 286
250 251 251 253 258 267 280 291 300 305 308 309 310 312 313 313 314 314 312 312 313 314 313 311 311 313 313 309 308 308 306 303 302 299 295 296 298 298 299 299 294 288
247 249 250 256 268 278 283 290 298 304 306 308 309 311 313 312 312 311 310 311 314 315 314 313 311 310 310 307 305 305 304 300 299 296 293 296 298 297 297 299 296 290
250 252 257 268 279 284 288 293 299 303 305 306 307 309 309 309 308 308 310 312 313 313 314 314 312 308 305 304 304 304 302 298 295 294 294 297 298 296 294 294 294 290
258 261 267 277 285 289 293 298 301 302 302 303 305 305 304 304 306 308 310 312 311 311 312 312 310 305 303 303 304 303 299 294 292 293 294 295 295 293 293 292 292 291
266 270 276 282 288 291 293 296 297 298 299 300 302 303 304 307 309 309 309 309 309 310 310 310 307 303 302 305 305 300 294 290 289 290 291 292 292 293 294 294 292 291
269 274 278 283 287 288 289 291 292 293 296 298 300 303 306 307 307 305 305 305 306 307 308 307 305 304 304 305 303 297 292 289 288 289 291 291 290 291 293 292 290 289
269 274 278 280 282 283 285 286 287 290 292 295 298 301 302 302 301 301 301 302 304 306 306 305 304 305 305 304 300 296 293 291 289 289 290 290 290 291 293 293 291 289
269 273 275 277 278 279 279 280 283 287 290 293 296 297 296 297 299 300 302 305 307 308 306 304 304 304 303 301 298 294 293 292 289 286 286 288 290 292 295 296 295 294
269 270 273 275 276 274 274 276 281 285 289 291 292 292 294 297 300 302 305 308 309 309 308 305 303 301 300 297 295 294 294 293 290 287 287 289 291 291 293 295 296 298
267 269 272 273 271 269 271 275 282 286 287 288 289 291 293 296 299 302 305 307 308 309 309 306 301 298 296 294 294 295 296 295 291 289 290 291 290 290 291 293 293 294
Height
5910 5910 5910 5911 5912 5912 5912 5912 5912 5912 5912 5912 5912 5911 5910 5909 5909 5908 5907 5906 5905 5905 5903 5902 5902 5901 5900 5899 5898 5897 5895 5894 5893 5893 5892 5891 5890 5890 5890 5889 5889 5888
5908 5908 5908 5909 5910 5910 5910 5910 5910 5910 5910 5910 5910 5909 5908 5907 5907 5906 5905 5904 5903 5902 5901 5900 5899 5898 5897 5896 5895 5894 5893 5892 5891 5890 5889 5889 5888 5888 5887 5887 5886 5886
5906 5906 5906 5907 5907 5907 5908 5908 5908 5908 5908 5908 5908 5907 5906 5905 5904 5903 5903 5901 5900 5899 5898 5897 5896 5896 5895 5893 5892 5891 5889 5888 5888 5887 5886 5886 5885 5885 5884 5884 5883 5883
5903 5904 5904 5905 5906 5906 5906 5906 5906 5906 5906 5906 5906 5905 5904 5903 5902 5901 5900 5899 5898 5897 5896 5894 5894 5893 5892 5890 5889 5887 5886 5885 5884 5884 5884 5883 5883 5882 5881 5881 5880 5880
5901 5902 5903 5903 5904 5904 5904 5904 5904 5904 5905 5904 5903 5903 5903 5901 5900 5899 5898 5897 5896 5895 5893 5892 5891 5890 5889 5887 5886 5884 5883 5882 5881 5880 5881 5880 5880 5879 5878 5877 5877 5876
5900 5900 5901 5902 5902 5902 5902 5902 5903 5903 5903 5902 5902 5901 5900 5899 5898 5897 5896 5895 5894 5893 5891 5890 5888 5887 5886 5884 5883 5882 5880 5879 5878 5878 5878 5877 5876 5875 5874 5874 5873 5872
5898 5899 5899 5900 5900 5900 5900 5900 5901 5901 5901 5900 5900 5899 5898 5897 5896 5895 5894 5893 5892 5890 5889 5888 5886 5885 5884 5882 5880 5879 5878 5877 5876 5875 5874 5874 5873 5871 5870 5870 5869 5868
5896 5897 5897 5898 5898 5898 5898 5899 5899 5898 5898 5898 5898 5897 5896 5895 5894 5893 5892 5891 5890 5888 5887 5886 5884 5883 5881 5880 5878 5876 5875 5874 5873 5872 5871 5870 5869 5868 5867 5866 5865 5864
5894 5895 5895 5896 5896 5896 5896 5897 5897 5896 5896 5896 5896 5895 5894 5893 5892 5891 5890 5889 5888 5886 5885 5884 5882 5881 5879 5878 5876 5874 5873 5871 5870 5869 5868 5867 5866 5865 5863 5862 5861 5860
5892 5893 5893 5894 5894 5894 5894 5894 5894 5894 5893 5893 5893 5893 5892 5891 5890 5889 5888 5887 5885 5884 5883 5881 5880 5878 5876 5875 5874 5872 5870 5868 5867 5866 5865 5864 5863 5861 5860 5859 5857 5856
5890 5891 5891 5892 5892 5892 5892 5892 5892 5892 5891 5890 5890 5890 5890 5889 5887 5887 5885 5884 5883 5882 5881 5879 5877 5876 5874 5872 5871 5869 5867 5865 5864 5863 5862 5861 5859 5858 5856 5855 5854 5853
5888 5889 5889 5890 5890 5890 5890 5890 5890 5890 5889 5888 5886 5886 5887 5886 5885 5884 5883 5881 5880 5879 5877 5876 5874 5873 5870 5868 5867 5865 5863 5862 5860 5859 5859 5858 5856 5855 5853 5852 5851 5849
5886 5887 5887 5888 5888 5887 5887 5887 5887 5887 5887 5886 5884 5883 5883 5884 5883 5881 5879 5878 5877 5875 5874 5873 5871 5869 5867 5864 5862 5861 5859 5858 5856 5856 5855 5854 5853 5852 5851 5849 5847 5846
5884 5884 5885 5885 5885 5885 5885 5885 5885 5885 5885 5884 5883 5882 5880 5880 5880 5879 5877 5876 5874 5872 5871 5869 5867 5865 5863 5860 5858 5856 5855 5854 5853 5852 5852 5851 5850 5849 5847 5846 5844 5842
5882 5882 5883 5883 5883 5883 5883 5882 5882 5882 5882 5882 5882 5880 5879 5878 5878 5877 5875 5873 5871 5870 5868 5866 5864 5862 5859 5857 5854 5852 5851 5850 5849 5848 5848 5847 5846 5845 5844 5842 5840 5838
5879 5880 5881 5881 5881 5881 5880 5880 5880 5880 5879 5879 5879 5878 5876 5876 5875 5874 5873 5870 5868 5867 5865 5863 5861 5859 5857 5853 5850 5848 5847 5846 5845 5844 5844 5843 5842 5841 5840 5838 5836 5834
5877 5878 5878 5878 5879 5879 5879 5878 5877 5877 5876 5876 5875 5874 5873 5872 5871 5870 5869 5867 5865 5863 5861 5859 5858 5856 5853 5849 5846 5844 5843 5842 5841 5840 5840 5840 5839 5838 5836 5834 5832 5830
5875 5875 5876 5876 5876 5876 5876 5876 5875 5874 5873 5872 5871 5871 5869 5868 5867 5866 5865 5864 5863 5860 5857 5856 5854 5853 5849 5845 5843 5841 5839 5838 5837 5836 5836 5836 5835 5834 5832 5831 5828 5825
5872 5872 5873 5873 5873 5874 5873 5873 5872 5871 5870 5868 5868 5867 5866 5864 5863 5861 5860 5860 5859 5857 5854 5852 5851 5849 5844 5840 5839 5838 5836 5834 5833 5832 5832 5832 5831 5829 5828 5827 5824 5821
5869 5870 5870 5870 5870 5870 5870 5869 5869 5867 5866 5865 5864 5863 5861 5859 5858 5856 5856 5855 5854 5852 5850 5848 5847 5844 5839 5835 5835 5834 5832 5831 5829 5828 5827 5827 5826 5824 5823 5822 5820 5817
5866 5866 5866 5866 5866 5866 5866 5866 5865 5864 5863 5862 5861 5860 5857 5855 5854 5852 5851 5850 5848 5847 5845 5843 5842 5839 5834 5831 5830 5828 5827 5826 5825 5824 5823 5822 5821 5820 5818 5817 5815 5813
5863 5862 5863 5863 5863 5862 5862 5862 5861 5860 5859 5858 5857 5856 5854 5853 5851 5849 5847 5845 5843 5842 5840 5838 5837 5834 5830 5827 5825 5823 5822 5822 5821 5820 5819 5817 5816 5815 5814 5812 5810 5808
5859 5859 5859 5859 5859 5859 5859 5858 5857 5857 5856 5854 5853 5852 5850 5849 5848 5846 5844 5841 5839 5837 5834 5832 5831 5829 5825 5822 5821 5820 5819 5818 5817 5815 5814 5812 5810 5810 5809 5807 5805 5803
5855 5855 5855 5854 5855 5855 5854 5854 5853 5852 5851 5850 5849 5847 5845 5844 5843 5841 5839 5837 5835 5832 5829 5827 5826 5824 5821 5819 5818 5817 5815 5814 5812 5810 5808 5806 5805 5804 5804 5802 5800 5797
5851 5851 5850 5850 5850 5850 5850 5850 5849 5848 5847 5846 5844 5842 5840 5839 5837 5836 5834 5832 5830 5827 5825 5823 5820 5818 5816 5815 5814 5812 5811 5809 5807 5804 5803 5801 5799 5799 5798 5797 5795 5793
5846 5846 5845 5845 5845 5845 5845 5845 5845 5843 5842 5841 5839 5838 5836 5834 5832 5830 5829 5827 5825 5822 5820 5818 5816 5814 5813 5810 5809 5807 5806 5804 5801 5799 5798 5797 5795 5794 5793 5792 5790 5788